User: anonymous   Login
Location: Unspecified
(0.0000°N, 0.0000°E)
Time: 21:37:37
(UTC+00:00)
Language:

TIGRISAT - Orbit

View from above orbital plane
View from above orbital plane
View from above satellite
View from above satellite

Ground track
Ground track

The orbit data is extracted from the following two-line orbital elements,

1 40043U 14033AK  18049.18019510  .00000127  00000-0  26422-4 0  9999
2 40043  97.8265 290.7186 0059106 221.3907 138.2816 14.74096546197077
Epoch (UTC): 18 February 2018 04:19:28
Eccentricity: 0.0059106
inclination: 97.8265°
perigee height: 606 km
apogee height: 689 km
right ascension of ascending node: 290.7186°
argument of perigee: 221.3907°
revolutions per day: 14.74096546
mean anomaly at epoch: 138.2816°
orbit number at epoch: 19707

The dashed part of the orbit path shows where the satellite is in the earth's shadow,  

DLR